Volver al catálogo

DELTA 1 DEB

ActivoSSO
NORAD 10656·DEBRIS·🇺🇸 United States

Lanzado Jul 29, 1976 desde Vandenberg Space Force Base

Loading…

Próximos Pases (próximas 24 horas)

TLE

ActualizadoSource: Space-Track

Época: Sep 14, 2026, 09:24 UTC

1 10656U 76077S   26257.39227075 -.00000020  00000-0  18435-3 0  9999
2 10656 101.8754 225.7318 0077483 318.5587 196.6970 12.37129128262745

Sigue DELTA 1 DEB en tiempo real con AllMySat

Download on the App Store